Theta_e
312 311 311 311 312 312 313 314 314 314 315 315 314 312 311 310 310 315 317 316 317 316 315 317 317 319 321 321 322 322 325 326 325 328 328 329 334 337 333 332 340 340 340 345 347 346 345 344 342 340 339 338 339 338 339 340 340 339 337 339 340 339 339 339 340 341 342 342 341 342 342 341 341 341 340 340 340 339 338 338 338 337 336 336 336 335
312 311 310 312 313 313 314 315 315 315 316 316 314 311 311 311 312 315 317 316 317 315 314 317 317 318 323 323 323 322 323 325 328 330 329 327 329 332 330 334 341 341 342 345 346 345 345 344 343 342 341 341 341 341 341 342 342 341 340 340 341 339 338 339 341 341 341 341 341 341 341 341 340 340 340 339 339 338 338 338 338 337 336 336 336 335
311 311 311 312 313 314 315 315 315 315 316 316 315 312 310 312 313 314 316 316 316 315 315 317 316 318 325 325 325 323 323 327 329 329 329 328 328 329 328 334 339 340 341 343 343 344 344 344 343 342 342 342 341 341 341 342 341 341 340 340 339 338 339 340 341 341 341 340 340 340 340 340 340 339 339 338 338 338 338 338 337 337 336 335 334 334
311 311 312 313 313 313 314 314 316 316 316 316 315 311 309 312 312 310 314 316 317 316 316 317 315 318 325 325 326 326 325 328 328 327 329 330 332 333 333 336 337 340 342 341 341 343 343 343 343 343 343 342 342 341 340 341 340 340 339 338 338 339 340 340 340 340 340 339 339 339 339 339 339 339 338 338 338 339 339 338 337 336 334 334 335 335
312 312 312 312 312 313 314 314 315 315 315 316 316 312 310 312 312 311 314 316 316 316 317 317 312 315 323 323 324 327 327 326 326 327 329 332 336 338 338 338 337 341 344 342 341 342 342 342 342 342 342 342 341 341 340 340 339 339 338 338 338 339 339 339 338 338 338 338 338 338 338 338 338 339 339 339 339 338 338 337 336 336 335 335 336 337
313 314 312 312 312 312 313 314 315 314 314 314 315 314 313 314 314 314 316 315 312 312 315 317 310 311 320 321 322 326 326 326 327 328 330 332 335 337 338 339 339 342 343 342 341 341 342 341 340 341 341 340 339 339 339 338 338 338 337 338 338 338 338 338 337 337 337 337 337 337 338 338 339 339 338 339 339 338 337 336 336 336 337 337 336 337
313 314 313 311 312 312 312 313 314 316 314 311 313 315 315 316 315 314 315 312 309 309 315 318 312 311 316 318 322 325 326 329 330 331 331 331 334 335 337 339 339 341 340 340 340 340 341 341 340 340 340 339 338 337 337 337 337 337 337 337 337 337 338 338 338 337 337 337 337 337 337 338 338 338 338 339 339 338 337 336 336 336 336 336 336 337
314 315 313 312 312 311 312 314 316 317 312 310 314 315 315 315 315 314 314 312 311 312 315 317 313 311 313 317 323 326 327 331 332 333 333 333 336 336 336 338 339 338 337 337 337 337 338 339 339 339 339 338 337 337 337 337 337 336 337 337 336 337 337 337 337 337 337 337 337 337 337 337 337 337 338 339 339 338 337 336 336 336 335 336 336 336
313 314 313 312 312 312 314 315 316 314 311 313 316 315 315 316 315 315 314 312 312 312 310 313 313 311 313 320 326 326 326 330 333 333 334 335 335 336 336 337 337 335 335 335 334 335 336 336 337 337 337 337 336 336 336 336 336 336 336 336 337 336 336 336 336 337 337 337 337 337 337 337 337 336 337 337 338 338 338 337 335 335 335 336 336 336
312 313 314 313 313 314 314 314 314 313 312 315 316 315 315 315 315 316 314 311 311 312 309 311 313 309 312 322 325 324 326 330 332 334 335 336 335 335 336 336 335 334 333 333 332 334 334 334 335 335 335 335 335 335 335 336 336 336 336 336 336 336 336 336 336 337 337 337 337 337 337 337 337 337 337 337 338 338 338 338 335 334 335 335 336 336
313 313 314 315 314 314 313 313 313 313 313 315 316 315 314 314 315 314 314 311 309 310 309 311 313 310 315 325 325 323 327 330 333 335 336 335 334 334 334 333 332 332 331 330 330 331 332 332 332 333 333 333 333 333 334 334 334 335 335 335 335 335 335 336 336 336 337 337 338 338 338 337 337 338 338 338 338 338 338 339 337 335 335 336 337 338
313 314 314 315 314 313 313 313 314 314 313 315 315 314 311 311 312 311 311 311 309 309 308 311 314 310 312 321 324 325 330 331 332 334 335 334 332 331 331 330 330 329 329 327 327 328 329 330 330 331 331 330 331 331 331 331 332 332 332 333 334 334 333 334 335 335 336 337 337 337 338 337 337 339 339 339 338 337 337 338 338 336 335 336 338 339
313 314 314 314 314 314 313 311 312 314 313 314 314 312 310 309 310 311 310 310 310 309 309 312 313 309 311 320 326 330 332 331 332 333 333 331 330 329 328 328 327 327 326 326 326 326 327 329 329 329 329 329 329 329 329 329 330 330 330 330 331 331 331 332 332 333 334 335 336 336 337 337 337 338 339 339 338 337 336 336 336 336 336 337 338 338
311 314 313 313 313 313 313 311 311 312 312 313 312 310 310 309 311 313 311 311 311 310 310 312 311 313 322 332 334 334 333 333 333 331 329 329 328 327 326 325 325 325 325 325 324 324 325 327 327 327 327 327 327 328 328 328 328 328 329 328 329 330 330 330 330 331 332 333 334 334 335 335 336 336 337 337 337 337 337 335 334 334 335 336 338 338
310 313 314 313 313 313 314 313 312 313 312 313 313 312 310 309 311 312 311 311 311 310 311 310 311 317 329 335 335 334 333 331 330 328 327 327 325 325 325 324 324 324 323 323 323 323 325 326 326 326 326 326 326 326 326 326 326 327 327 327 327 328 328 329 329 329 330 331 332 332 333 334 334 335 335 336 336 335 336 335 334 333 333 334 336 337
309 312 314 314 314 313 314 314 315 313 311 312 313 311 310 310 311 310 311 312 310 311 310 311 319 325 330 333 333 333 331 329 329 327 326 326 325 324 324 324 324 323 322 323 323 323 324 325 325 325 325 325 325 325 325 325 325 325 325 326 326 327 327 327 328 328 329 330 330 331 332 332 333 333 334 334 334 334 334 334 334 334 334 334 335 336
310 312 314 314 314 314 314 314 315 312 311 312 310 309 311 313 313 310 311 314 311 312 311 313 328 334 331 334 334 331 331 330 328 328 327 326 324 324 324 323 323 322 321 322 322 322 323 323 323 324 324 323 323 324 323 324 323 324 324 324 325 325 326 326 327 327 328 328 329 330 330 331 332 332 333 333 333 334 334 333 333 334 335 334 334 335
312 311 313 313 313 313 314 314 314 313 313 312 309 310 312 313 314 311 310 313 311 312 312 312 328 336 332 334 336 332 332 332 330 329 327 325 324 323 322 321 321 321 321 321 321 322 323 323 322 322 322 322 322 322 322 322 322 323 323 323 323 324 325 325 326 326 326 327 327 328 329 329 330 331 331 332 332 333 333 333 333 334 334 334 334 334
313 311 312 313 313 313 313 313 312 313 313 313 311 313 312 310 311 311 311 312 311 313 313 310 321 330 326 329 334 334 333 332 331 329 326 325 324 322 321 320 320 321 321 321 320 320 322 322 321 321 321 321 321 321 321 321 322 322 322 322 322 323 324 324 325 325 325 326 326 327 327 328 328 329 330 331 332 332 332 332 332 333 333 333 334 334
314 312 311 313 313 313 313 312 310 311 312 314 313 312 313 311 311 311 312 312 311 312 314 314 316 319 321 327 333 334 332 331 331 329 326 325 323 322 321 321 321 321 321 320 319 319 320 320 320 320 320 320 320 320 321 321 321 321 321 321 322 322 323 323 323 324 325 325 325 326 326 326 327 328 329 330 331 332 332 332 332 333 332 332 332 334
314 313 312 313 313 312 312 311 311 312 312 311 311 310 311 312 312 314 313 311 311 311 314 316 314 315 323 330 332 333 332 330 329 328 326 325 323 321 321 321 321 320 320 319 318 318 319 319 319 319 319 320 320 320 320 320 320 320 321 321 321 321 322 322 323 323 323 324 324 324 325 326 326 327 328 329 330 330 331 331 331 332 333 333 332 332
313 313 313 312 311 309 310 312 312 314 313 312 312 310 310 311 311 313 313 312 311 310 312 313 315 322 330 331 331 333 332 329 327 326 325 324 322 321 321 321 320 319 318 318 317 317 319 319 318 319 319 319 319 320 320 320 320 320 320 320 321 321 321 321 322 322 322 323 323 323 324 325 326 327 327 328 329 330 330 331 331 331 332 334 333 331
314 314 313 311 311 311 312 313 313 314 314 313 313 313 313 312 311 311 312 313 311 310 311 309 314 328 333 330 331 333 330 328 326 325 324 323 322 321 320 320 318 318 317 317 317 318 318 318 318 319 319 319 319 319 319 319 320 320 319 320 320 320 320 320 320 320 321 322 322 322 323 324 325 325 326 327 328 329 330 331 331 331 332 332 333 331
315 314 312 311 311 311 312 312 313 313 314 313 312 314 314 313 312 312 312 313 311 310 310 309 316 331 333 331 332 331 328 327 326 325 324 322 321 320 318 318 317 316 316 316 317 318 318 319 319 319 318 318 318 318 318 319 319 319 319 319 319 320 319 319 319 319 320 321 321 321 322 323 323 324 324 324 325 326 328 330 330 331 331 331 331 331
314 313 312 312 311 311 312 311 311 313 314 313 313 314 314 314 314 314 314 313 312 311 311 310 319 331 332 332 332 330 328 328 326 324 323 321 320 318 317 317 316 316 315 315 316 317 318 319 318 318 318 318 318 318 318 318 318 318 319 319 319 319 319 318 318 319 319 320 320 321 321 321 322 322 323 323 324 324 326 327 329 330 331 331 331 331
313 314 313 312 312 311 312 311 311 312 314 314 314 313 314 314 313 313 313 311 312 313 310 311 323 332 332 332 332 329 328 327 325 323 321 320 319 317 317 316 316 316 315 315 316 316 317 318 318 317 317 317 317 317 317 317 318 318 318 318 319 318 318 317 318 319 319 319 320 320 320 320 321 321 322 323 323 324 325 326 327 329 330 330 330 330
313 315 315 316 315 312 312 313 313 314 313 312 313 312 313 315 314 314 312 310 313 313 309 315 329 333 333 333 332 329 327 325 324 321 320 319 318 317 316 315 315 315 314 315 316 316 316 317 317 317 316 316 317 316 317 317 317 317 317 317 318 318 317 317 318 318 319 319 319 320 319 319 320 320 321 322 323 324 325 326 326 327 328 329 329 330
314 316 320 323 322 317 315 315 314 315 313 312 313 313 313 315 316 315 312 312 314 311 312 324 333 331 332 333 330 327 325 323 321 320 319 318 317 316 316 315 314 314 314 314 315 315 315 316 316 316 316 316 316 316 316 316 316 316 316 317 317 317 317 318 318 318 319 319 319 319 319 319 319 320 321 322 322 323 324 325 326 327 328 329 329 329
315 316 321 323 321 320 320 319 316 315 314 313 314 314 314 315 316 315 313 316 316 313 319 331 333 330 332 330 326 324 322 320 319 318 318 317 316 315 315 315 314 314 313 314 314 314 314 315 316 316 315 315 315 315 315 315 315 316 315 316 317 317 317 318 318 318 318 318 318 318 318 318 318 320 321 321 322 321 322 322 323 325 326 328 329 329
313 316 321 322 321 321 320 319 318 316 316 315 315 316 317 316 316 316 318 321 322 323 328 332 330 330 329 325 322 321 318 317 316 316 316 315 315 315 315 315 315 314 313 313 314 314 314 315 316 315 314 314 314 314 314 314 314 314 314 315 315 316 317 317 317 317 317 317 317 316 317 317 317 319 320 320 320 320 320 319 319 321 322 325 327 328
315 318 323 323 323 324 322 320 320 320 320 320 319 318 319 318 318 320 323 326 328 331 333 330 328 327 323 319 318 316 315 315 314 314 314 314 314 315 315 315 314 313 313 313 313 313 314 315 315 314 314 314 313 313 313 313 313 313 313 313 314 315 316 317 317 317 317 317 316 316 316 316 317 318 319 319 319 318 317 317 317 317 317 319 323 326
317 320 323 320 320 325 325 321 321 320 321 324 326 325 324 324 324 326 329 328 329 332 332 329 327 322 317 315 314 313 313 313 313 313 313 313 313 314 314 314 313 313 312 313 313 313 313 314 315 314 313 312 312 312 312 312 312 312 313 313 313 314 315 316 317 316 316 316 316 315 315 314 316 317 318 318 318 317 316 315 315 314 313 315 318 322
316 320 321 317 317 323 326 323 321 321 321 325 327 327 327 328 328 329 330 328 328 330 330 327 324 318 314 314 313 313 313 312 312 312 312 312 312 313 313 313 312 312 312 312 312 312 312 313 313 312 312 311 311 310 310 311 311 312 312 312 313 314 314 315 316 316 316 315 315 315 314 313 315 316 317 317 316 316 315 314 313 312 311 312 314 317
317 318 318 315 316 321 327 326 324 322 321 322 321 321 323 326 326 327 327 325 324 325 324 321 318 315 314 314 313 312 311 310 310 310 310 310 311 310 311 311 311 312 312 311 311 311 311 312 311 311 310 310 309 309 309 310 310 311 311 311 312 313 314 314 315 315 315 314 314 315 314 313 314 315 316 316 315 314 314 313 312 311 310 310 312 314
317 316 316 314 315 321 326 326 325 324 322 320 318 319 320 322 323 323 323 322 321 320 318 317 316 314 314 313 310 309 308 308 308 308 308 308 308 309 310 310 310 310 310 309 309 309 309 309 309 309 309 309 309 309 309 309 310 310 310 310 311 312 313 313 313 314 314 313 313 314 313 313 313 313 315 315 314 313 313 312 311 310 309 309 309 310
317 316 315 313 316 322 323 323 324 324 321 319 320 319 319 321 321 321 321 320 319 318 317 316 314 313 311 309 307 307 306 306 305 305 306 306 307 307 308 308 308 308 308 308 307 307 307 307 307 308 308 308 308 309 309 309 309 309 309 309 310 311 312 312 313 313 313 313 313 313 313 313 312 312 313 314 313 313 312 311 310 309 308 308 308 307
317 315 315 316 318 320 320 321 323 322 321 321 320 320 320 321 322 322 322 320 318 316 315 313 312 310 308 307 306 306 305 305 305 304 304 305 305 306 307 307 307 307 307 306 306 306 306 305 306 307 307 308 308 308 308 309 309 309 308 308 308 309 311 311 312 312 312 312 312 312 312 312 312 312 312 313 313 312 311 310 309 308 307 307 306 305
320 320 320 320 319 317 318 320 322 323 323 322 321 320 321 321 322 322 322 319 317 315 312 311 310 308 307 307 306 306 308 310 307 305 304 303 304 305 305 306 306 306 306 306 305 305 305 305 306 306 306 307 308 308 308 308 308 308 308 308 308 308 309 310 311 311 311 311 311 311 311 311 311 311 312 312 311 311 310 309 308 308 307 306 305 304
322 323 321 320 318 317 318 319 319 321 322 322 321 320 319 320 320 321 323 322 317 313 312 310 309 308 307 307 307 309 313 313 308 304 303 303 303 305 304 304 305 305 305 305 305 305 305 305 306 305 306 307 308 308 309 309 309 308 308 308 308 307 307 309 310 310 310 310 310 310 310 310 310 311 311 311 311 309 308 308 308 307 306 305 305 304
323 322 319 317 318 318 318 318 318 319 320 320 320 318 317 318 319 323 326 323 316 313 312 310 309 308 308 308 308 310 313 313 307 303 303 303 304 304 304 304 305 305 305 305 305 305 305 305 305 306 307 308 308 308 308 308 308 308 308 308 308 307 306 307 309 309 310 310 309 310 309 308 308 309 310 311 311 309 307 307 307 307 306 306 305 305
320 319 317 317 318 317 317 318 319 319 319 319 318 317 316 318 320 323 323 319 315 313 312 311 310 310 309 310 310 309 309 308 305 303 303 303 303 304 304 304 304 305 305 304 304 304 305 305 306 306 307 308 308 307 307 307 307 307 307 307 307 307 306 306 308 308 309 309 309 309 308 306 305 306 308 309 310 309 307 307 307 307 306 305 305 305
316 316 316 315 316 316 316 318 319 318 317 317 317 316 317 319 321 320 318 316 314 313 312 311 310 310 310 310 308 306 305 304 303 302 303 303 303 303 303 303 304 304 304 304 304 305 306 306 306 306 307 306 306 306 306 306 307 307 306 306 307 307 306 305 307 307 308 308 308 308 307 305 304 304 305 306 308 309 307 306 306 306 306 305 304 304
317 315 314 315 317 314 313 316 319 318 317 316 316 316 317 318 318 316 315 315 314 312 311 311 310 309 309 307 306 304 304 303 303 303 302 302 303 303 303 304 304 304 305 305 305 305 305 305 305 305 305 305 304 304 304 305 305 306 305 306 307 307 306 305 306 306 307 308 307 307 306 305 303 303 303 304 305 306 306 306 305 305 305 304 303 302
318 317 315 317 319 317 314 317 317 317 315 315 316 316 316 316 315 314 314 313 312 311 310 309 308 308 307 306 305 304 304 303 303 302 302 302 303 303 303 303 304 304 304 304 304 304 304 305 305 305 304 304 303 303 303 304 304 305 304 305 305 305 305 305 305 305 306 307 306 306 306 305 304 303 303 303 303 303 304 305 305 305 304 303 302 301
318 318 317 317 315 316 316 315 314 314 314 314 315 315 314 314 314 313 313 312 311 310 309 308 307 307 306 305 304 304 303 303 302 302 301 302 302 303 302 303 303 303 303 304 304 304 304 304 304 304 303 303 303 303 303 303 304 304 304 304 304 304 304 305 304 304 305 305 305 305 305 304 304 303 303 303 303 302 302 303 304 304 304 303 301 300
316 316 317 315 312 312 312 311 312 313 312 312 313 313 314 314 313 312 312 311 310 309 308 308 307 306 305 304 303 303 302 302 302 301 301 302 302 302 302 302 302 303 303 302 302 302 303 302 302 302 302 302 302 302 302 303 304 304 303 303 303 303 303 304 304 304 304 304 304 304 303 303 302 301 301 301 301 301 301 301 301 301 302 303 302 301
314 315 317 315 314 314 313 311 312 312 311 311 312 312 313 312 312 311 311 310 309 309 307 307 306 305 305 304 303 302 302 301 301 301 301 301 302 302 302 302 302 302 302 301 301 301 301 301 301 301 301 301 301 302 302 302 303 303 303 303 303 303 303 303 304 304 304 304 304 303 302 301 300 299 298 298 299 299 299 300 300 299 298 300 301 301
314 314 315 314 314 314 313 311 311 311 311 311 311 311 311 311 310 310 309 309 308 307 307 306 306 305 304 303 303 302 302 302 302 301 301 302 302 302 302 302 301 301 301 301 300 300 300 301 301 301 301 301 301 302 302 302 302 302 302 302 302 302 302 302 303 303 303 303 303 303 303 302 301 300 298 298 298 298 298 298 299 298 297 297 298 299
313 313 313 313 312 311 310 309 309 310 310 310 310 310 310 310 309 308 308 307 307 306 306 306 305 304 304 303 303 302 302 301 302 302 301 302 302 302 302 301 301 301 301 301 301 301 302 302 302 301 301 301 301 301 301 301 301 301 301 301 302 302 302 302 302 302 302 302 303 303 303 302 302 301 300 299 298 298 297 297 298 298 297 297 297 298
313 313 312 312 312 311 311 310 310 311 310 309 309 309 309 309 308 307 307 307 306 305 305 304 304 304 304 303 303 303 301 301 302 302 302 302 302 302 301 301 301 301 301 301 301 301 302 302 301 301 301 301 301 301 301 301 301 301 301 301 301 301 302 302 302 302 302 301 302 302 302 302 302 302 302 301 300 299 298 297 297 298 297 297 297 297
312 313 312 312 312 313 311 310 310 311 309 308 308 308 308 308 307 307 306 306 305 305 304 303 303 302 303 303 303 302 302 302 302 302 302 302 302 301 301 301 302 302 301 302 302 301 301 301 301 301 301 300 300 300 300 301 301 300 301 301 301 301 301 301 301 302 301 301 301 301 301 302 302 302 302 302 302 301 300 299 298 297 297 297 297 297
Wind_Speed
11 10 12 13 14 16 17 17 18 17 13 13 13 13 13 10 12 12 13 19 21 15 14 18 19 15 14 11 11 10 11 11 9 7 6 10 11 9 10 9 10 11 9 9 12 14 15 16 13 9 7 5 6 6 5 5 5 4 5 5 5 5 4 4 5 6 5 6 6 6 7 8 6 5 6 6 6 8 8 8 9 10 11 12 14 15
12 12 14 17 17 16 18 17 19 19 14 12 11 13 12 9 12 11 10 16 20 15 13 17 20 14 13 10 9 9 13 11 7 7 8 10 11 11 11 10 12 11 8 8 11 14 15 15 12 8 6 5 5 5 3 4 6 4 3 4 4 3 3 4 4 5 5 4 4 4 5 6 6 5 5 6 6 7 8 9 10 9 9 10 13 14
12 13 16 19 17 16 17 17 18 18 14 10 8 11 11 9 11 10 10 13 16 12 11 17 19 12 12 8 8 7 9 9 5 6 7 7 8 10 10 10 12 10 7 7 9 12 14 12 10 7 5 7 8 8 6 6 7 5 5 5 4 3 3 3 2 2 2 1 1 1 2 4 6 5 4 4 5 5 6 8 10 10 9 11 13 14
11 12 17 17 17 18 17 17 18 15 11 9 9 10 9 11 13 10 12 14 15 12 13 17 16 10 11 7 6 6 6 8 7 7 7 5 3 4 5 8 11 9 7 9 9 11 12 10 10 9 7 8 9 9 9 7 7 6 5 5 5 4 3 3 2 0 1 0 1 1 2 3 4 5 5 5 5 4 5 7 10 12 11 12 14 13
12 12 16 18 17 19 17 17 19 13 9 11 12 11 10 14 15 10 12 12 12 14 16 14 13 9 10 11 8 7 6 8 9 8 8 8 7 8 9 10 11 8 7 10 10 10 11 10 12 13 10 9 9 9 9 8 7 7 7 7 7 6 4 3 2 2 2 2 2 1 2 3 4 5 5 6 5 4 5 7 11 12 12 13 14 14
12 12 16 19 18 19 18 16 18 14 9 11 14 13 13 14 14 12 15 12 10 12 13 11 11 9 11 15 12 9 8 9 9 9 10 10 10 8 10 11 11 9 8 9 10 10 11 11 12 13 11 10 9 9 9 8 7 8 8 8 7 5 3 2 2 2 3 3 2 1 2 3 5 5 4 5 5 4 6 8 11 12 12 13 14 14
10 12 15 19 19 21 19 15 17 16 10 9 12 15 16 15 15 15 17 13 8 10 12 12 11 8 11 15 14 12 10 10 10 9 10 9 9 8 8 10 11 9 9 10 10 11 11 9 10 11 11 11 9 8 8 8 8 8 8 7 5 3 2 2 2 1 1 1 1 2 3 4 6 6 5 4 4 4 6 9 12 13 14 13 13 15
11 15 16 19 19 18 16 12 16 18 12 7 12 16 16 15 17 16 15 12 8 9 13 16 14 8 8 12 14 15 13 12 12 10 10 9 10 10 9 10 11 10 10 10 10 10 10 10 10 11 12 12 10 9 9 8 8 7 7 6 4 3 2 2 2 1 1 1 2 3 3 5 6 7 6 4 4 5 6 7 9 12 14 13 13 15
13 17 16 18 16 13 13 14 16 18 15 9 13 16 12 12 15 16 14 11 10 10 11 15 16 10 7 10 12 15 15 14 14 12 11 11 11 11 11 11 12 11 10 10 9 9 10 11 11 11 12 13 11 10 9 8 7 7 6 5 5 3 3 3 2 1 0 1 2 4 4 5 6 7 6 6 5 6 7 8 8 11 12 13 14 16
13 16 15 16 13 12 14 16 17 17 16 12 13 16 12 10 11 12 11 10 10 11 10 14 16 11 6 10 11 13 14 14 13 12 11 12 12 11 11 11 12 11 10 10 10 11 12 13 13 12 13 14 13 11 10 9 8 7 6 5 5 4 4 3 2 1 2 2 3 5 5 6 8 8 7 7 7 7 8 10 11 12 13 14 16 17
13 11 12 13 13 13 14 16 16 18 19 14 11 14 13 10 9 8 9 9 10 11 11 14 17 13 6 8 10 11 13 14 13 12 12 13 13 11 10 10 11 10 9 10 10 11 13 14 13 13 13 13 13 12 11 11 10 9 7 6 6 5 5 4 3 3 4 4 5 6 6 8 9 8 8 8 9 9 10 11 12 14 15 15 16 17
15 12 10 12 14 14 14 16 15 17 21 14 9 12 12 9 8 7 7 9 10 9 11 13 17 17 10 7 10 10 13 17 14 14 15 14 12 11 9 9 10 9 9 9 9 9 11 12 12 12 12 12 11 11 11 11 9 8 8 7 7 6 6 6 6 6 6 6 6 7 8 9 10 9 9 9 10 12 12 11 12 13 15 16 15 16
14 14 14 14 16 16 15 14 13 14 17 13 10 12 11 8 8 8 9 9 9 9 11 15 17 15 6 4 11 12 12 15 13 14 15 14 13 11 10 10 9 8 9 8 8 8 8 9 10 10 11 10 11 11 10 10 9 8 8 8 7 7 7 7 7 8 8 8 8 8 9 10 11 10 10 11 12 12 13 13 12 12 14 15 14 15
12 13 16 16 14 17 17 13 11 12 13 13 12 12 10 9 9 9 10 9 9 9 11 17 17 9 5 6 10 14 14 14 15 15 15 14 13 12 10 10 9 9 9 8 8 8 7 8 9 9 9 9 10 10 10 10 9 8 8 8 9 8 8 8 8 9 9 9 9 9 10 11 12 12 11 11 13 13 13 13 14 13 14 15 14 14
14 11 15 16 12 15 19 15 13 12 13 13 12 10 10 9 8 8 8 8 10 9 10 16 14 6 8 7 9 15 17 16 15 15 14 13 12 11 10 10 10 9 8 8 8 8 8 9 9 9 9 9 10 10 10 10 9 9 9 9 10 10 10 10 10 10 10 10 10 10 10 11 12 13 13 12 13 13 13 14 15 15 16 17 16 14
15 11 14 17 14 16 17 15 16 14 11 12 11 10 11 10 8 8 6 5 7 8 9 9 3 5 8 10 11 14 16 16 15 15 14 12 12 11 10 9 9 8 8 7 7 8 8 9 9 9 9 9 9 9 9 10 10 10 10 10 11 11 11 11 11 11 11 11 10 10 11 11 12 13 13 14 14 14 15 16 16 16 17 19 19 18
13 11 17 19 16 19 17 15 18 15 10 10 11 11 10 10 9 8 6 4 4 9 9 6 5 7 7 8 10 13 15 15 15 14 13 12 12 11 9 8 8 8 7 7 7 7 8 9 9 8 8 9 9 9 9 10 10 10 10 11 11 11 11 11 11 11 11 11 11 11 11 11 12 13 14 15 16 16 17 18 16 16 17 20 21 20
11 9 17 21 17 19 19 17 17 17 13 9 10 11 9 9 9 6 7 6 8 10 9 10 9 9 8 6 9 14 15 15 15 14 13 12 11 10 9 8 8 8 7 7 7 7 7 8 8 8 8 9 9 9 9 9 9 9 10 10 10 11 11 12 12 11 12 12 12 11 11 12 13 13 14 15 16 17 18 18 17 16 17 17 18 21
10 7 13 21 18 17 18 17 15 17 18 13 11 11 9 9 8 6 7 8 10 9 8 11 12 10 9 8 11 15 16 16 15 14 13 12 11 10 10 9 8 8 7 6 6 6 7 8 8 8 8 9 9 9 9 9 9 9 10 10 11 11 12 12 13 13 12 12 12 12 12 13 14 14 15 15 16 18 18 18 17 16 17 16 16 19
10 7 9 17 18 15 14 13 12 13 15 15 13 13 10 9 8 7 7 6 8 9 8 10 11 9 8 11 17 18 19 18 16 14 13 11 12 10 9 9 8 7 6 5 5 5 6 8 8 8 7 8 8 8 8 8 9 9 10 11 11 12 13 13 14 13 13 13 13 13 13 14 15 15 15 15 17 19 19 19 18 16 17 17 17 18
8 7 7 13 17 15 12 12 14 14 14 13 11 12 12 10 9 8 7 6 8 9 8 8 9 6 3 9 18 19 19 18 15 14 13 12 12 10 9 8 7 7 6 5 5 5 6 7 7 7 7 7 8 8 8 8 8 9 10 11 12 12 13 14 14 14 14 14 14 14 15 15 15 15 16 16 17 18 19 19 19 17 15 15 17 21
8 8 8 10 13 13 12 15 17 16 15 13 9 11 13 12 11 10 9 9 8 9 8 8 7 3 4 1 13 17 16 17 16 15 14 13 13 11 9 9 8 7 6 6 6 5 6 6 7 7 8 8 8 9 9 8 9 10 11 12 12 13 14 15 15 14 15 15 15 15 16 16 15 15 16 17 17 18 18 19 19 17 15 15 17 20
6 6 9 10 11 12 14 17 18 18 18 15 12 13 13 12 12 11 10 10 9 10 11 9 7 4 4 2 10 15 15 17 16 15 14 13 12 11 10 9 9 8 7 7 6 6 6 6 6 7 7 8 9 10 10 10 10 12 13 13 13 14 15 15 15 15 15 15 15 16 15 15 15 15 16 17 17 18 18 19 19 17 15 16 16 17
4 5 9 9 9 11 14 16 17 17 16 15 13 13 12 13 14 12 10 10 9 11 10 8 6 5 1 2 12 16 17 17 15 14 15 13 12 11 11 10 9 8 8 7 6 6 5 6 7 7 8 9 9 10 10 10 11 12 12 13 13 13 14 15 15 15 15 15 15 15 15 15 15 15 16 16 17 18 18 19 20 18 16 17 17 17
5 7 8 8 9 10 12 15 15 14 12 11 12 14 15 16 18 14 10 8 7 11 12 7 4 6 4 5 13 17 18 17 15 15 15 14 12 11 10 10 9 9 9 7 7 6 5 6 8 8 8 9 9 10 10 11 11 12 12 13 13 13 14 14 14 15 15 15 15 15 15 16 16 16 17 17 18 18 19 19 19 18 17 18 18 17
6 9 9 8 11 12 11 11 12 11 11 11 14 18 19 20 20 15 10 7 6 11 14 8 5 8 8 10 14 16 17 17 16 15 14 13 13 12 10 10 9 9 9 8 7 6 6 7 8 9 9 9 10 10 10 11 12 12 12 13 13 13 13 13 13 14 14 15 15 15 16 17 17 17 17 18 18 19 20 20 19 19 18 18 18 17
6 9 7 4 6 9 12 12 12 13 13 13 16 20 20 20 20 15 10 8 7 9 10 7 13 14 12 14 15 15 17 17 16 15 14 13 12 11 11 10 9 9 8 7 6 6 6 7 8 9 9 10 11 11 11 11 12 12 12 12 12 12 12 12 13 14 13 14 15 16 17 18 17 17 18 18 19 19 20 21 19 19 19 18 18 17
7 8 6 1 2 2 8 14 17 17 17 17 18 19 19 19 18 15 11 9 9 8 5 10 20 19 15 16 16 15 16 16 15 14 13 13 12 11 11 11 11 10 8 7 7 7 7 7 8 9 10 10 11 11 11 10 11 12 12 12 11 11 12 13 14 15 14 15 16 16 17 18 17 17 18 19 18 18 20 21 21 20 19 18 17 17
7 7 5 3 2 3 2 9 16 17 16 17 16 15 16 15 12 11 8 6 7 5 5 11 19 19 16 15 15 15 15 15 15 13 12 13 13 12 12 12 12 11 9 8 7 7 7 7 8 9 10 11 11 11 11 10 11 12 12 12 11 11 12 13 14 15 16 16 17 17 17 17 17 17 18 19 19 19 20 21 22 21 20 20 19 17
7 6 6 5 5 5 3 7 12 14 13 13 14 14 13 12 12 10 5 2 1 7 12 14 17 17 14 13 13 13 13 13 14 13 13 13 13 13 13 12 12 11 10 9 8 8 7 7 9 10 11 11 11 11 11 10 11 11 12 12 11 11 13 13 14 15 16 16 17 17 17 16 17 18 18 18 19 20 21 21 21 21 21 21 20 19
7 4 7 8 6 6 7 8 10 10 8 7 10 11 11 11 12 10 5 5 6 12 16 18 19 13 9 12 14 13 12 13 13 13 13 13 12 13 12 12 11 11 10 9 8 8 7 8 9 10 11 11 11 11 11 11 11 11 11 12 12 13 13 13 14 15 16 17 18 18 18 17 17 18 18 18 19 20 21 22 21 21 22 21 21 20
7 4 5 7 6 7 8 11 12 12 10 8 8 8 7 8 7 7 7 6 4 10 14 14 12 8 9 13 14 13 13 14 14 14 13 11 11 12 12 11 11 10 9 9 8 7 7 8 10 10 11 11 11 11 11 11 11 11 12 12 13 14 14 14 14 15 16 17 18 19 18 18 18 18 18 19 20 20 21 22 21 21 23 23 22 21
10 7 5 8 6 5 7 11 14 14 11 8 6 6 4 6 8 9 10 10 7 6 9 6 6 10 13 14 14 14 14 13 13 12 11 11 11 11 11 11 11 10 9 8 8 7 7 8 9 10 10 11 11 11 12 12 11 12 12 12 13 14 14 15 15 15 16 17 19 20 19 18 18 19 19 19 20 20 21 22 21 22 23 23 23 21
11 8 7 8 6 5 7 9 10 12 9 4 1 3 5 4 8 9 11 13 12 9 8 9 12 15 15 14 15 15 13 13 12 9 9 10 10 10 10 10 10 9 9 8 8 7 8 8 10 10 10 11 11 11 12 12 12 11 12 12 13 14 15 15 15 16 17 17 19 20 20 19 18 19 19 20 20 20 21 22 22 21 21 22 23 22
11 8 7 8 6 5 7 8 8 8 4 1 2 1 3 5 11 14 14 13 13 13 15 16 17 16 15 14 15 15 14 14 12 10 9 9 9 9 10 9 9 9 8 7 7 7 9 9 10 10 10 11 11 11 12 13 12 12 12 13 13 14 14 15 16 16 17 17 19 20 20 20 19 18 19 20 20 21 21 22 22 21 20 21 21 20
10 9 7 8 6 5 7 8 7 4 3 2 4 4 3 6 10 11 11 11 10 11 14 17 17 16 16 16 15 15 15 15 12 11 9 8 8 8 8 8 8 8 8 7 8 9 10 10 10 10 10 11 11 12 13 13 13 12 13 13 14 14 14 15 16 17 17 18 18 19 20 20 19 19 19 20 20 21 21 22 21 20 19 19 19 18
9 9 7 5 5 6 7 4 4 6 5 4 5 5 4 4 4 4 7 8 7 9 12 15 16 16 16 16 15 15 15 13 10 8 7 8 8 8 8 9 9 9 9 9 10 10 9 9 10 10 10 11 12 13 13 13 13 13 13 14 14 14 15 15 16 17 18 18 18 18 19 19 19 19 19 19 20 20 20 20 20 19 19 19 19 19
0 3 6 5 5 7 7 5 5 6 4 4 6 5 2 2 2 5 9 7 6 8 12 14 16 17 16 15 15 15 12 9 7 5 6 7 8 8 9 10 10 10 10 10 10 10 10 10 10 10 11 11 12 12 12 12 13 12 12 13 14 15 15 16 17 18 18 18 17 18 17 17 18 19 19 19 19 19 19 19 19 19 18 17 17 18
2 1 6 7 7 7 8 7 6 4 2 2 7 7 3 1 1 3 5 5 6 9 11 14 15 16 15 15 14 12 9 6 6 5 6 8 8 9 9 10 10 10 10 11 11 11 10 9 9 10 11 11 11 11 11 11 12 12 13 14 14 15 15 16 17 18 18 18 17 17 17 16 16 17 19 19 18 18 17 18 18 18 17 15 16 17
6 5 6 6 7 8 7 5 3 3 3 4 7 7 4 2 1 4 5 5 9 10 11 13 15 14 14 14 11 6 2 4 7 8 8 10 10 10 10 10 10 10 10 11 10 9 10 10 10 11 10 10 11 11 11 11 11 12 13 14 14 15 16 16 17 17 17 17 17 17 17 16 15 15 17 19 19 18 17 16 17 18 17 15 15 16
7 6 6 6 6 6 6 5 4 4 4 5 6 5 3 1 3 5 3 7 11 12 12 13 14 14 13 11 7 3 4 7 12 12 12 12 11 11 12 11 11 10 10 10 10 9 10 10 10 10 9 9 11 11 11 11 11 12 14 14 14 16 16 16 16 17 17 18 18 17 17 18 16 13 14 17 17 18 18 17 18 19 19 17 17 17
4 4 5 5 4 5 6 6 5 4 3 3 5 4 2 2 3 3 6 9 13 14 13 14 14 14 12 9 8 9 11 15 17 15 13 13 12 12 12 11 11 11 11 10 9 9 9 9 9 9 9 10 11 11 11 11 11 13 14 14 13 14 15 15 15 16 17 17 18 18 18 18 17 15 15 16 16 16 18 18 19 19 20 22 22 21
2 2 5 3 2 3 6 6 4 4 3 3 6 4 2 2 3 8 9 11 14 13 13 13 12 11 12 12 13 14 16 17 17 15 14 13 12 13 12 12 12 12 11 10 10 9 9 9 9 9 10 10 11 11 12 12 12 13 14 14 14 14 14 14 14 15 16 17 18 19 19 19 20 21 21 20 18 17 18 19 19 19 20 21 23 25
5 4 2 3 4 2 4 3 4 5 6 2 2 4 5 5 8 10 10 11 12 12 12 11 10 11 13 14 16 16 17 17 16 15 15 13 12 13 13 12 12 11 11 10 10 9 9 9 9 9 10 10 11 11 12 13 13 13 13 14 14 14 14 13 14 14 15 16 18 18 18 19 20 21 21 22 22 21 20 20 19 19 20 20 21 25
6 4 3 6 7 5 5 6 6 7 8 6 5 7 9 10 10 11 12 12 10 10 10 10 12 14 15 16 17 16 15 16 16 15 14 13 12 13 13 12 12 12 11 11 10 10 10 10 10 10 11 12 12 12 12 12 12 12 13 13 14 14 13 13 13 13 14 16 17 17 18 18 19 19 19 20 22 22 21 20 20 18 19 20 21 22
5 3 3 6 8 9 10 8 7 9 9 8 8 8 9 11 11 11 12 11 10 10 11 11 13 15 15 16 16 15 15 16 16 15 14 13 13 13 14 14 13 12 12 12 11 10 10 11 11 11 12 12 12 12 12 12 12 12 13 13 13 14 14 13 13 13 13 13 15 16 18 18 19 21 22 21 20 20 20 20 20 20 19 18 19 20
3 0 3 6 7 5 6 7 8 10 10 9 9 9 10 12 11 10 10 11 11 13 13 13 15 15 15 15 16 16 16 16 16 15 13 12 13 14 15 15 14 13 13 12 11 11 11 12 11 11 12 12 12 12 12 12 12 12 13 12 12 13 14 14 14 14 13 13 12 13 15 17 18 22 26 27 25 23 21 19 20 23 24 21 18 17
2 2 3 7 5 3 7 9 8 9 10 9 9 9 9 11 12 12 12 12 13 14 15 16 16 15 14 15 16 17 17 16 15 15 13 12 14 15 15 15 14 14 13 13 12 12 11 11 12 11 11 12 12 12 12 12 12 13 13 13 12 12 13 14 14 14 14 13 13 12 12 14 14 16 21 27 31 30 27 22 19 22 26 24 20 17
2 3 4 9 9 7 8 10 10 9 9 8 8 9 9 11 13 14 14 15 16 16 16 17 17 16 16 16 17 17 17 16 16 16 14 13 15 16 16 16 15 15 14 13 12 11 10 12 13 12 12 12 12 12 13 13 13 13 13 13 12 12 12 12 13 14 14 14 14 13 13 12 13 12 13 18 25 31 32 28 22 20 22 24 23 20
2 5 6 7 6 5 7 11 10 8 8 7 9 10 11 12 15 16 16 16 16 16 17 17 18 19 19 20 19 18 16 15 16 17 16 14 15 17 17 16 15 14 13 12 12 11 11 13 13 12 12 13 12 13 13 14 14 14 14 14 13 13 12 12 12 14 15 15 14 14 13 13 13 13 12 12 16 21 27 31 30 26 25 24 24 22
3 3 4 3 2 5 11 14 10 7 9 10 11 12 12 13 14 15 16 16 16 17 17 18 18 19 18 19 21 19 17 16 18 18 17 16 17 17 16 16 15 14 13 13 12 12 12 12 12 12 13 12 12 12 13 13 14 14 14 15 15 15 14 13 12 13 14 15 15 14 14 14 14 14 14 13 13 14 18 24 29 30 29 28 27 28
Wind_Direction
188 199 204 210 210 205 208 210 219 227 223 215 200 209 223 206 211 203 181 183 183 194 192 196 208 174 146 154 153 164 182 204 209 179 178 177 172 197 201 164 113 95 96 103 105 105 101 105 122 144 153 135 110 134 165 154 133 147 175 161 152 171 170 172 185 183 194 205 213 234 253 263 264 256 247 233 232 243 244 241 239 236 235 231 216 206
193 211 210 209 214 207 208 211 218 228 234 235 210 203 217 209 209 198 165 172 180 198 197 194 209 180 138 146 144 157 175 184 197 170 194 201 177 191 198 155 112 103 119 120 107 106 104 111 132 154 148 124 107 109 116 119 109 104 133 131 119 128 148 180 194 192 198 212 224 240 264 283 286 274 259 246 239 247 252 247 242 237 231 222 213 208
200 216 212 206 212 211 209 210 216 226 232 241 219 204 211 203 204 177 145 175 188 203 196 191 209 181 138 149 141 158 170 152 168 175 187 212 190 189 191 156 123 115 127 125 110 105 104 113 131 135 108 97 101 98 88 96 94 81 92 101 104 120 153 176 183 193 184 193 236 262 294 304 303 294 280 261 245 242 247 245 244 241 230 222 220 221
202 212 212 206 209 213 208 205 213 221 220 227 217 207 207 197 205 180 156 185 191 207 206 188 204 186 146 159 148 152 163 145 160 166 162 186 173 142 139 123 115 127 146 133 118 109 108 116 123 113 94 87 94 93 89 93 90 81 89 100 106 109 115 109 86 32 117 79 273 287 308 310 307 299 282 265 246 227 232 233 239 242 233 225 228 228
208 203 204 206 207 210 207 201 208 214 206 219 223 216 211 202 207 183 156 179 186 212 225 195 197 200 168 183 180 158 169 165 159 154 154 157 133 96 89 100 112 134 150 128 122 116 112 116 113 106 96 89 85 78 73 73 81 92 101 103 103 98 89 90 115 208 185 206 230 240 300 308 296 286 269 259 241 209 213 222 234 241 234 228 230 229
216 199 193 203 204 205 209 204 204 207 200 213 224 230 229 210 198 174 165 179 184 205 224 205 199 203 186 194 188 171 179 172 157 157 158 155 144 117 97 99 111 125 124 112 112 112 111 112 109 105 100 96 86 75 78 82 92 101 102 101 100 103 105 117 154 183 180 191 201 225 280 286 285 282 266 259 249 208 199 212 224 232 230 227 229 229
220 202 191 202 202 201 210 207 197 202 210 211 210 224 236 218 195 183 179 185 192 195 197 200 211 200 187 196 184 174 178 166 155 153 150 143 132 118 105 103 106 109 103 94 90 96 104 102 97 94 90 95 98 98 99 98 100 102 102 103 96 94 98 94 102 133 168 194 223 246 272 280 284 288 277 266 262 233 208 209 220 228 227 226 230 233
214 210 198 200 202 199 206 205 194 199 217 214 186 204 236 232 203 187 184 193 201 196 188 197 217 221 191 187 174 174 178 166 159 151 136 125 114 108 103 103 103 98 93 93 88 88 93 87 82 83 84 91 100 104 102 96 95 93 94 101 100 90 76 63 54 70 174 270 272 257 274 283 283 286 285 275 256 239 219 211 223 234 235 229 227 232
202 214 197 189 197 198 202 206 196 197 217 218 180 190 229 243 211 188 189 206 204 198 194 194 209 226 199 178 175 177 179 171 163 154 138 126 119 109 99 95 97 98 96 98 95 89 90 85 78 79 82 83 85 88 91 90 88 85 84 88 91 84 63 49 42 42 251 273 283 273 272 276 275 273 272 266 250 236 223 215 217 231 242 241 232 231
199 214 194 185 202 206 203 208 199 195 216 221 184 183 207 230 219 200 198 210 212 216 208 187 198 223 199 166 174 181 180 174 159 145 129 118 114 105 103 103 101 102 100 93 88 82 81 77 71 72 75 71 67 67 71 72 71 72 72 69 70 68 53 39 21 336 294 265 262 268 269 272 271 268 267 261 250 242 231 226 221 220 232 242 240 233
191 192 191 194 212 211 201 206 198 193 213 221 187 183 199 211 216 217 215 214 220 224 212 196 200 215 208 163 179 191 180 169 155 136 120 111 110 104 104 107 103 102 98 90 85 79 75 71 67 68 67 62 58 56 56 54 51 52 49 44 50 49 34 16 353 326 306 287 269 266 269 272 276 281 281 268 257 252 243 234 228 223 226 234 236 229
187 176 193 205 213 210 201 201 193 195 209 210 188 191 195 197 207 216 222 221 226 220 205 208 208 206 218 203 184 178 162 157 154 144 133 122 116 111 106 103 101 100 95 91 85 78 74 70 68 66 64 62 59 55 53 48 44 45 39 28 29 29 16 0 346 334 320 307 294 286 283 283 285 285 280 272 265 260 253 247 239 232 232 234 233 227
198 188 194 201 206 207 205 196 185 196 205 195 190 199 192 186 196 203 206 209 225 226 203 207 212 205 210 176 148 139 141 144 140 135 130 124 119 116 112 105 99 96 93 89 81 75 71 68 67 65 62 59 54 50 47 43 38 35 30 21 17 12 3 353 341 335 328 319 311 305 301 298 295 289 279 274 271 266 263 261 256 248 243 240 236 232
200 190 192 198 198 204 209 195 182 193 192 191 198 198 193 189 188 197 202 197 213 230 211 206 211 190 122 98 113 114 111 111 114 119 119 118 119 116 112 106 97 90 86 82 79 74 69 67 65 61 57 53 48 44 38 34 28 22 21 14 7 1 353 347 340 333 328 323 321 318 313 306 301 296 288 278 273 271 270 269 269 266 261 256 249 241
198 189 193 199 189 197 210 196 184 191 185 196 210 205 205 201 188 195 203 199 199 210 215 210 208 168 128 120 106 104 102 102 108 114 114 114 116 112 108 105 97 90 84 80 80 76 70 67 63 56 52 46 40 36 30 26 21 16 13 7 1 355 349 345 341 335 330 327 324 320 315 309 305 302 298 291 284 280 278 275 272 270 267 265 260 252
202 197 189 196 188 188 205 197 185 190 188 195 210 216 217 208 192 192 212 235 212 202 210 207 179 80 114 124 118 115 111 113 115 115 119 119 116 114 108 104 97 90 86 83 80 77 69 62 55 50 46 41 35 31 26 20 15 11 7 2 357 351 346 342 339 335 333 329 324 320 315 312 307 304 302 297 291 288 285 280 276 272 267 262 257 253
201 200 178 185 192 185 196 205 192 189 191 190 200 212 219 224 218 198 205 262 241 210 201 176 109 94 127 137 138 134 121 121 124 124 127 123 117 113 105 100 97 91 91 89 82 76 69 61 55 49 43 38 33 28 23 18 14 10 5 1 355 351 345 341 339 336 334 331 328 324 319 315 311 306 301 295 291 289 285 280 276 273 269 263 259 256
201 202 170 177 193 183 189 210 204 196 200 195 198 202 204 229 244 228 209 211 212 214 202 181 159 144 164 170 157 154 141 138 140 133 129 125 120 113 106 104 100 97 99 94 87 78 68 60 51 45 38 33 29 24 21 17 14 11 8 2 355 351 346 341 339 336 335 334 332 329 326 321 315 307 300 294 290 287 284 281 276 269 267 268 266 263
202 203 168 180 191 176 179 204 206 199 209 213 199 192 196 212 227 235 224 207 205 213 207 191 179 176 195 181 164 168 158 151 150 139 133 130 123 117 113 112 108 106 102 89 83 70 58 51 43 40 33 28 27 23 19 17 14 11 8 3 357 352 348 344 342 339 337 336 333 330 328 322 315 307 302 297 292 287 283 283 280 272 267 268 270 268
205 202 173 182 187 176 175 199 203 190 205 220 204 191 203 211 206 215 223 211 210 213 205 200 198 203 203 172 169 171 159 156 157 144 139 134 125 122 119 117 114 108 99 83 74 60 51 47 40 37 32 29 29 23 20 17 14 12 8 4 360 355 351 348 346 343 340 338 335 331 328 323 318 312 306 300 296 293 289 285 283 280 272 265 265 267
204 197 176 178 184 185 182 194 202 190 191 209 206 194 198 201 199 208 216 214 217 215 206 210 210 203 171 161 167 164 154 158 159 146 141 135 125 121 119 119 113 104 96 84 75 65 58 51 42 38 34 31 31 27 24 21 17 15 11 7 2 357 354 350 348 346 343 340 336 332 329 326 321 315 310 305 301 298 296 291 287 284 275 264 262 262
198 190 181 183 187 192 190 189 199 200 191 193 204 204 197 192 194 202 208 211 217 216 212 217 203 147 21 155 157 151 150 152 150 145 139 133 128 126 124 121 114 108 101 92 85 76 67 55 44 41 37 32 32 27 22 21 21 18 13 9 4 359 354 351 349 349 345 340 336 333 329 326 323 320 316 312 306 301 298 295 292 288 275 264 262 262
204 200 188 192 191 191 188 187 200 206 195 191 208 214 204 196 197 201 203 203 213 219 214 214 192 126 359 303 146 141 142 141 142 142 135 133 132 128 124 117 112 110 105 100 95 83 71 58 47 45 41 35 33 28 23 23 22 19 14 9 4 359 355 352 352 350 345 340 337 334 330 328 327 325 322 317 312 308 304 300 299 294 279 267 263 263
192 213 196 192 193 195 189 185 200 208 198 195 208 214 212 205 204 212 215 203 212 223 217 213 188 144 45 157 141 138 138 138 141 140 134 134 131 125 122 117 114 112 107 104 98 88 75 60 50 45 41 37 33 30 27 27 24 20 15 9 3 358 355 354 352 349 344 339 336 335 334 333 330 328 327 323 318 314 311 307 305 301 290 279 271 267
183 208 197 188 186 189 189 186 191 202 207 204 202 206 215 209 205 217 224 207 217 224 214 211 178 137 124 137 138 137 139 139 138 137 134 134 130 126 123 120 119 117 111 106 98 85 66 55 51 46 43 38 33 31 30 30 26 20 16 9 3 359 356 354 351 346 344 341 339 339 339 338 336 333 332 328 323 319 315 311 308 305 299 290 281 273
189 208 197 199 197 184 185 190 183 185 201 209 199 200 212 212 205 211 216 201 213 223 217 208 144 125 127 135 136 135 138 136 133 133 131 130 129 126 124 123 121 117 111 105 97 85 68 60 55 49 46 40 34 30 29 29 24 19 15 9 4 1 357 353 349 346 346 344 344 344 343 342 341 339 337 334 329 323 318 314 308 304 301 296 291 283
190 212 196 214 229 197 188 192 189 187 194 205 202 199 207 210 203 204 212 207 204 223 227 175 136 138 142 141 137 135 136 134 130 131 129 126 126 124 123 123 119 116 113 106 100 89 76 66 57 52 47 42 37 31 29 28 23 18 14 7 4 2 357 353 349 346 347 349 350 349 348 346 345 343 341 338 333 326 322 319 313 305 300 297 294 286
193 204 185 173 325 198 193 191 192 196 196 200 204 203 205 207 204 206 207 204 209 223 216 142 138 145 149 145 139 135 136 133 129 130 130 127 127 126 127 125 121 120 115 106 97 88 80 70 60 54 48 44 39 33 30 29 25 20 14 7 5 3 358 355 354 350 351 357 356 352 351 349 348 346 343 341 340 335 329 326 322 315 305 297 291 284
204 188 177 197 134 98 209 192 189 199 201 199 201 204 206 205 209 215 200 208 238 223 145 136 138 141 145 142 136 134 135 131 127 127 127 125 127 130 130 129 125 121 114 106 100 91 82 72 64 57 51 47 42 37 33 29 27 24 18 12 7 4 1 359 359 357 357 2 0 353 351 351 349 347 344 343 344 343 338 332 328 324 315 304 294 286
211 174 164 185 141 126 197 189 185 198 200 196 193 198 210 209 210 210 175 102 56 105 114 122 121 124 136 137 128 125 125 123 123 125 126 127 129 133 133 131 127 121 113 107 102 96 85 73 67 60 54 49 41 36 33 28 26 22 17 13 6 5 5 2 2 1 359 4 4 356 352 352 350 348 347 347 347 345 343 338 333 330 325 318 306 294
204 173 163 173 136 135 179 179 174 174 157 155 171 178 193 201 200 192 142 89 91 107 113 115 109 107 119 124 121 119 118 122 125 125 126 128 132 134 133 130 126 121 115 110 104 99 89 75 67 58 50 43 35 31 28 24 23 18 15 15 9 6 4 1 5 4 1 5 6 360 356 355 353 351 350 351 350 348 346 342 339 336 334 333 326 313
200 177 163 194 170 141 169 173 161 152 140 129 121 120 144 165 157 131 103 82 109 131 127 119 118 127 130 124 123 121 122 126 126 125 126 129 134 136 133 130 128 123 119 113 105 95 82 72 63 51 41 36 30 27 24 21 19 14 13 15 13 9 4 5 10 8 5 7 7 4 2 358 356 354 353 354 354 352 349 346 345 344 343 344 342 335
201 179 169 204 186 144 174 170 154 154 156 142 103 63 67 113 111 98 82 54 49 135 149 130 123 138 139 133 128 127 127 126 123 124 127 130 134 132 128 128 126 123 121 114 104 90 74 65 57 44 35 32 27 22 21 20 17 12 11 14 15 14 12 13 15 12 9 9 8 7 5 0 359 358 357 358 357 354 353 351 350 349 349 350 350 349
198 192 194 198 180 168 180 158 151 170 173 151 125 352 5 71 100 96 81 60 55 78 98 98 115 132 139 137 131 127 125 120 115 114 116 124 130 126 124 126 124 122 120 108 95 81 63 56 50 38 31 29 24 20 20 19 15 11 12 14 16 19 18 15 17 16 12 10 9 9 8 5 3 2 1 2 0 358 358 356 354 352 352 354 356 355
186 188 203 201 180 169 170 159 169 188 180 140 200 263 359 66 94 89 78 70 76 89 98 107 122 133 133 127 123 119 115 111 106 102 105 115 122 123 125 125 120 119 114 99 83 66 54 51 46 35 29 26 21 20 20 17 13 13 15 15 16 22 19 14 17 19 14 11 10 9 9 8 5 3 3 3 3 3 2 359 357 355 355 357 358 358
183 188 207 204 175 157 177 185 177 149 109 117 152 148 141 132 118 97 77 69 77 97 111 117 122 125 122 119 118 116 114 108 96 89 96 104 110 117 122 120 116 112 102 88 75 62 53 49 44 37 32 28 25 23 20 14 11 14 17 16 17 22 21 16 19 21 16 13 11 9 9 9 7 5 4 4 6 6 4 2 0 358 358 358 359 2
190 195 201 194 174 175 180 160 120 120 134 157 157 147 142 142 138 109 92 85 82 99 116 123 122 122 122 121 122 124 121 109 88 78 85 95 104 112 113 113 112 104 92 82 76 70 61 53 50 43 35 31 28 24 18 13 12 15 19 19 19 22 21 19 21 21 17 14 11 8 8 9 8 7 5 6 8 8 6 6 5 3 3 4 5 7
280 202 199 178 168 189 181 150 144 153 155 169 164 153 110 48 88 114 111 103 95 112 128 133 130 129 129 129 134 140 135 114 94 95 104 105 110 114 112 111 109 100 90 84 82 79 71 61 55 47 36 31 28 23 18 15 14 17 20 20 20 22 21 20 20 20 18 15 10 9 9 8 9 10 9 9 9 9 9 10 10 10 10 12 14 15
38 257 226 190 168 189 191 178 174 158 102 124 144 149 165 140 94 155 149 122 115 130 139 138 136 136 137 139 145 153 154 135 122 133 132 124 121 119 116 115 111 101 92 87 83 79 72 63 56 49 40 33 29 24 20 20 19 19 21 21 21 22 22 21 20 19 18 15 12 11 11 10 9 10 11 13 13 13 15 16 15 16 18 21 20 20
172 190 217 196 177 185 181 165 144 89 70 114 136 145 147 103 338 236 206 149 136 141 141 139 139 139 141 146 152 160 174 149 144 146 139 131 126 120 117 116 113 104 94 87 81 75 72 64 56 52 44 35 34 29 23 24 25 24 24 23 22 23 22 20 19 20 19 17 15 15 15 14 13 12 14 17 20 23 24 23 22 22 23 25 23 21
171 170 181 184 176 169 155 134 110 88 91 118 134 132 109 108 231 221 162 127 136 140 138 137 138 138 140 145 142 98 60 101 124 134 133 129 124 118 115 114 108 99 89 84 80 75 75 68 60 57 47 37 37 34 29 29 28 29 29 27 26 26 21 18 20 22 22 21 20 20 18 18 18 16 13 16 24 31 32 30 31 31 31 32 31 28
165 163 173 177 173 172 160 134 117 107 94 123 138 118 60 259 216 121 102 121 131 132 133 133 134 137 136 121 106 102 100 107 118 126 128 126 123 119 116 113 107 99 94 92 89 82 78 72 64 60 51 42 39 37 35 33 30 32 32 27 26 28 24 20 22 25 27 27 26 26 24 24 29 36 33 25 25 33 36 34 35 36 39 42 42 40
26 229 188 135 87 177 174 152 133 124 122 166 173 145 24 347 124 114 117 126 124 123 129 128 128 133 128 113 109 114 116 116 120 123 123 121 120 117 115 111 107 102 97 95 90 82 78 73 66 61 55 49 44 40 40 38 34 35 34 26 23 27 29 26 26 30 33 33 33 34 34 33 37 45 49 44 39 39 39 38 38 37 37 39 41 43
9 319 214 81 22 284 189 137 97 99 103 121 174 122 85 92 121 127 125 122 122 125 126 123 123 126 125 122 121 120 120 121 122 122 120 119 118 116 114 111 106 101 97 96 91 85 82 77 72 68 60 52 47 42 41 42 40 38 36 32 26 26 31 32 31 35 39 39 39 38 37 38 39 39 42 44 45 42 36 34 38 40 40 38 37 41
33 28 75 70 44 39 74 89 91 94 92 80 82 102 107 108 116 123 123 123 128 130 127 127 127 126 126 126 124 122 123 123 122 121 120 118 116 115 113 111 109 105 102 97 90 85 82 77 72 66 57 50 47 44 42 43 43 41 38 35 32 29 31 34 36 39 42 44 45 41 36 37 37 35 33 35 38 37 31 28 31 34 39 42 41 41
72 69 77 94 101 87 75 84 103 98 90 89 92 101 106 107 113 119 121 122 126 128 129 130 128 128 130 128 125 123 125 125 123 121 119 116 115 115 113 111 109 105 98 88 82 81 81 79 73 66 59 52 46 45 45 43 44 43 39 36 35 34 35 36 38 41 43 46 51 50 45 41 38 38 38 37 35 34 32 31 31 30 30 37 43 44
106 6 68 111 145 133 90 100 110 102 102 104 101 99 100 103 111 118 118 121 123 123 124 125 127 130 131 128 126 126 126 127 124 121 120 119 118 118 117 114 109 103 97 89 83 82 80 77 74 68 63 58 50 48 49 45 43 43 42 39 38 38 40 40 38 40 40 41 48 53 51 49 45 44 46 46 44 42 37 33 35 37 36 33 35 40
117 228 129 109 111 95 105 118 112 99 107 113 110 112 111 108 113 116 116 119 120 120 123 125 127 129 127 127 128 127 126 126 125 124 124 123 122 121 119 116 111 107 103 97 93 92 90 89 85 74 65 62 57 52 51 47 43 41 40 40 39 39 41 42 40 40 39 36 39 44 48 54 55 53 51 50 48 48 45 41 39 42 43 41 39 41
101 156 109 96 98 97 112 129 124 106 105 109 111 116 118 116 118 118 118 120 121 122 123 123 123 124 126 129 129 126 125 126 125 124 124 122 122 122 118 116 115 111 107 104 102 99 93 88 86 78 69 65 60 55 53 49 45 43 41 41 40 41 43 43 43 43 41 36 35 37 40 46 53 60 65 60 54 51 50 49 50 52 51 50 50 52
106 134 106 109 139 150 150 158 152 127 117 123 123 121 120 121 122 122 123 125 123 123 124 123 122 123 125 127 129 127 126 126 125 125 124 123 123 123 120 120 118 113 111 111 108 100 88 83 83 81 76 70 62 57 54 50 48 47 46 43 41 41 44 45 45 46 46 42 37 37 40 41 42 47 57 66 67 64 58 54 55 58 60 59 58 59
24 89 95 104 122 126 145 157 152 120 121 132 131 125 124 125 125 125 126 125 123 125 127 126 125 126 125 126 128 126 125 127 129 129 128 126 127 126 125 124 120 116 115 113 107 100 94 90 88 84 79 75 68 62 57 52 49 49 49 49 47 43 42 44 46 47 48 46 41 38 42 46 45 45 47 52 63 75 74 66 61 60 62 64 65 64